USA 157 (MILSTAR-2 2)

Last updated on Tue Sep 22 2026 00:03:10 GMT+0000 (Coordinated Universal Time)

1 26715U 01009A 26264.49084657 .00000112 00000+0 00000+0 0 9996 2 26715 11.6487 19.1417 0042922 179.8411 188.1009 1.00268754 33919
UTC large
Height (km)
Speed (km/s)
/
Latitude / Longitude
Inclination (degrees)
Orbital Period (minutes)
Azimuth
Elevation
Range (km)
Doppler Factor

Next 0 passes for location: London (51.5072 / 0.1276)

No passes found over London.
USA 157 (MILSTAR-2 2)